TimeCST,TemperatureF,Dew PointF,Humidity,Sea Level PressureIn,VisibilityMPH,Wind Direction,Wind SpeedMPH,Gust SpeedMPH,PrecipitationIn,Events,Conditions,WindDirDegrees,DateUTC
12:03 AM,62.6,44.6,52,30.09,10.0,NW,13.8,-,N/A,,Clear,310,2012-11-23 06:03:00
12:55 AM,58.1,37.6,46,30.14,10.0,NW,9.2,-,N/A,,Clear,310,2012-11-23 06:55:00
1:55 AM,57.0,37.9,49,30.17,10.0,NNW,12.7,-,N/A,,Clear,330,2012-11-23 07:55:00
2:55 AM,55.4,37.2,50,30.20,10.0,NW,10.4,-,N/A,,Clear,320,2012-11-23 08:55:00
3:55 AM,54.1,35.4,49,30.23,10.0,NNW,16.1,-,N/A,,Clear,340,2012-11-23 09:55:00
4:55 AM,53.6,35.2,50,30.26,10.0,North,16.1,26.5,N/A,,Overcast,350,2012-11-23 10:55:00
5:55 AM,54.0,34.0,47,30.30,10.0,North,24.2,28.8,N/A,,Overcast,360,2012-11-23 11:55:00
6:55 AM,52.5,32.2,46,30.34,10.0,North,21.9,28.8,N/A,,Overcast,10,2012-11-23 12:55:00
7:55 AM,51.8,28.9,41,30.38,10.0,North,20.7,28.8,N/A,,Overcast,10,2012-11-23 13:55:00
8:55 AM,52.3,28.2,39,30.42,10.0,NNE,18.4,27.6,N/A,,Partly Cloudy,20,2012-11-23 14:55:00
9:55 AM,55.4,23.9,30,30.43,10.0,NNE,21.9,31.1,N/A,,Clear,30,2012-11-23 15:55:00
10:55 AM,57.9,23.0,26,30.44,10.0,NE,19.6,28.8,N/A,,Clear,40,2012-11-23 16:55:00
11:55 AM,59.2,22.6,25,30.43,10.0,NNE,18.4,28.8,N/A,,Clear,30,2012-11-23 17:55:00
12:55 PM,60.4,22.8,24,30.42,10.0,North,20.7,26.5,N/A,,Clear,10,2012-11-23 18:55:00
1:55 PM,60.6,21.7,22,30.41,10.0,NNE,21.9,27.6,N/A,,Clear,20,2012-11-23 19:55:00
2:55 PM,60.6,19.9,21,30.41,10.0,NNE,15.0,24.2,N/A,,Clear,20,2012-11-23 20:55:00
3:55 PM,60.6,20.8,22,30.40,10.0,NNE,12.7,-,N/A,,Clear,20,2012-11-23 21:55:00
4:55 PM,58.5,18.9,21,30.41,10.0,NNE,11.5,-,N/A,,Clear,30,2012-11-23 22:55:00
5:55 PM,54.3,17.6,24,30.42,10.0,NNE,9.2,-,N/A,,Clear,20,2012-11-23 23:55:00
6:55 PM,45.5,20.1,36,30.44,10.0,North,5.8,-,N/A,,Clear,10,2012-11-24 00:55:00
7:55 PM,43.0,19.8,40,30.45,10.0,North,4.6,-,N/A,,Clear,350,2012-11-24 01:55:00
8:55 PM,41.4,19.8,42,30.46,6.0,NNW,4.6,-,N/A,,Haze,340,2012-11-24 02:55:00
9:55 PM,38.3,19.9,48,30.47,10.0,NNW,4.6,-,N/A,,Clear,340,2012-11-24 03:55:00
10:55 PM,37.0,20.1,50,30.44,10.0,North,4.6,-,N/A,,Clear,10,2012-11-24 04:55:00
11:55 PM,34.2,17.2,50,30.45,8.0,Calm,Calm,-,N/A,,Clear,0,2012-11-24 05:55:00